TimeAKDT,TemperatureF,Dew PointF,Humidity,Sea Level PressureIn,VisibilityMPH,Wind Direction,Wind SpeedMPH,Gust SpeedMPH,PrecipitationIn,Events,Conditions,WindDirDegrees,DateUTC
12:52 AM,37.0,35.1,93,30.26,10.0,Calm,Calm,-,N/A,,Overcast,0,2012-10-07 08:52:00
1:52 AM,37.0,35.1,93,30.27,10.0,ENE,3.5,-,N/A,,Overcast,70,2012-10-07 09:52:00
2:52 AM,37.0,35.1,93,30.28,10.0,Calm,Calm,-,N/A,,Clear,0,2012-10-07 10:52:00
3:52 AM,34.0,32.0,92,30.27,10.0,NE,4.6,-,N/A,,Overcast,40,2012-10-07 11:52:00
4:52 AM,33.1,30.9,92,30.27,10.0,NNE,4.6,-,N/A,,Scattered Clouds,30,2012-10-07 12:52:00
5:52 AM,32.0,30.0,92,30.27,10.0,Calm,Calm,-,N/A,,Scattered Clouds,0,2012-10-07 13:52:00
6:52 AM,28.9,27.0,92,30.28,10.0,NNE,3.5,-,N/A,,Scattered Clouds,30,2012-10-07 14:52:00
7:52 AM,30.0,28.0,92,30.27,10.0,NNE,3.5,-,N/A,,Mostly Cloudy,30,2012-10-07 15:52:00
8:52 AM,28.9,27.0,92,30.28,10.0,North,5.8,-,N/A,,Mostly Cloudy,10,2012-10-07 16:52:00
9:50 AM,32.0,30.2,93,30.27,10.0,Calm,Calm,-,N/A,,Mostly Cloudy,0,2012-10-07 17:50:00
9:52 AM,30.9,30.0,96,30.29,10.0,NNW,3.5,-,N/A,,Mostly Cloudy,340,2012-10-07 17:52:00
10:52 AM,34.0,32.0,92,30.29,10.0,Calm,Calm,-,N/A,,Mostly Cloudy,0,2012-10-07 18:52:00
11:52 AM,36.0,34.0,93,30.29,10.0,South,3.5,-,N/A,,Mostly Cloudy,180,2012-10-07 19:52:00
12:06 PM,35.6,33.8,93,30.27,10.0,Calm,Calm,-,N/A,,Overcast,0,2012-10-07 20:06:00
12:52 PM,37.0,35.1,93,30.28,10.0,ESE,3.5,-,N/A,,Overcast,120,2012-10-07 20:52:00
1:52 PM,37.9,35.1,89,30.27,10.0,Calm,Calm,-,N/A,,Overcast,0,2012-10-07 21:52:00
2:16 PM,39.2,35.6,87,30.26,10.0,Calm,Calm,-,N/A,,Overcast,0,2012-10-07 22:16:00
2:52 PM,39.0,35.1,86,30.27,10.0,Calm,Calm,-,N/A,,Overcast,0,2012-10-07 22:52:00
3:52 PM,39.9,36.0,86,30.27,10.0,Calm,Calm,-,N/A,,Overcast,0,2012-10-07 23:52:00
4:52 PM,39.9,36.0,86,30.26,10.0,Calm,Calm,-,N/A,,Overcast,0,2012-10-08 00:52:00
5:52 PM,39.9,36.0,86,30.25,10.0,Calm,Calm,-,N/A,,Overcast,0,2012-10-08 01:52:00
6:52 PM,39.0,36.0,89,30.25,10.0,Calm,Calm,-,N/A,,Overcast,0,2012-10-08 02:52:00
7:52 PM,37.0,34.0,89,30.25,10.0,Calm,Calm,-,N/A,,Overcast,0,2012-10-08 03:52:00
8:52 PM,35.1,33.1,92,30.24,10.0,Calm,Calm,-,N/A,,Overcast,0,2012-10-08 04:52:00
9:52 PM,34.0,32.0,92,30.24,10.0,Calm,Calm,-,N/A,,Overcast,0,2012-10-08 05:52:00
10:52 PM,34.0,32.0,92,30.23,10.0,Calm,Calm,-,N/A,,Overcast,0,2012-10-08 06:52:00
11:52 PM,35.1,33.1,92,30.24,10.0,NNW,3.5,-,N/A,,Overcast,330,2012-10-08 07:52:00